TimeEDT,TemperatureF,Dew PointF,Humidity,Sea Level PressureIn,VisibilityMPH,Wind Direction,Wind SpeedMPH,Gust SpeedMPH,PrecipitationIn,Events,Conditions,WindDirDegrees,DateUTC
12:53 AM,57.9,54.0,87,29.54,10.0,ESE,9.2,-,0.06,Rain,Light Rain,110,2012-10-18 04:53:00
1:53 AM,59.0,54.0,83,29.53,9.0,South,11.5,17.3,0.04,Rain,Light Rain,170,2012-10-18 05:53:00
2:53 AM,57.9,53.1,84,29.49,10.0,SSE,12.7,-,0.05,,Overcast,160,2012-10-18 06:53:00
3:53 AM,59.0,50.0,72,29.45,10.0,South,17.3,-,N/A,,Partly Cloudy,170,2012-10-18 07:53:00
4:53 AM,59.0,48.0,67,29.41,10.0,South,16.1,24.2,N/A,,Mostly Cloudy,180,2012-10-18 08:53:00
5:53 AM,60.1,46.9,62,29.40,10.0,South,17.3,26.5,N/A,,Mostly Cloudy,180,2012-10-18 09:53:00
6:53 AM,59.0,46.9,64,29.39,10.0,South,17.3,-,N/A,,Overcast,190,2012-10-18 10:53:00
7:53 AM,55.9,52.0,87,29.42,7.0,SSW,17.3,-,0.04,Rain,Light Rain,210,2012-10-18 11:53:00
8:27 AM,55.4,53.6,94,29.41,8.0,SSW,17.3,-,0.04,Rain,Light Rain,210,2012-10-18 12:27:00
8:42 AM,53.6,51.8,94,29.44,2.5,West,13.8,35.7,0.15,Rain,Heavy Rain,260,2012-10-18 12:42:00
8:45 AM,53.6,50.0,88,29.44,2.5,West,12.7,35.7,0.16,Rain,Rain,270,2012-10-18 12:45:00
8:53 AM,53.1,50.0,89,29.45,9.0,West,11.5,-,0.17,Rain,Light Rain,270,2012-10-18 12:53:00
9:04 AM,51.8,48.2,88,29.45,10.0,West,9.2,20.7,0.00,Rain,Light Rain,270,2012-10-18 13:04:00
9:53 AM,51.1,46.9,86,29.49,10.0,SW,13.8,17.3,0.01,,Overcast,220,2012-10-18 13:53:00
10:09 AM,51.8,46.4,82,29.48,10.0,SW,13.8,24.2,0.00,Rain,Light Rain,230,2012-10-18 14:09:00
10:18 AM,50.0,46.4,87,29.47,10.0,WSW,8.1,20.7,0.00,Rain,Light Rain,240,2012-10-18 14:18:00
10:31 AM,51.8,46.4,82,29.48,10.0,SW,13.8,-,0.00,,Overcast,230,2012-10-18 14:31:00
10:53 AM,51.1,46.0,83,29.50,10.0,WSW,12.7,26.5,0.00,,Mostly Cloudy,240,2012-10-18 14:53:00
11:07 AM,51.8,44.6,76,29.50,10.0,WSW,12.7,23.0,N/A,,Mostly Cloudy,250,2012-10-18 15:07:00
11:53 AM,52.0,44.1,74,29.54,10.0,WSW,11.5,18.4,N/A,,Mostly Cloudy,250,2012-10-18 15:53:00
12:53 PM,55.0,39.9,57,29.56,10.0,WSW,17.3,26.5,N/A,,Partly Cloudy,250,2012-10-18 16:53:00
1:53 PM,57.0,37.9,49,29.57,10.0,WSW,11.5,29.9,N/A,,Partly Cloudy,250,2012-10-18 17:53:00
2:53 PM,60.1,36.0,41,29.57,10.0,SW,23.0,31.1,N/A,,Partly Cloudy,230,2012-10-18 18:53:00
3:53 PM,57.9,35.1,42,29.57,10.0,SW,19.6,31.1,N/A,,Mostly Cloudy,220,2012-10-18 19:53:00
4:16 PM,53.6,41.0,62,29.57,10.0,WSW,8.1,23.0,0.00,Rain,Light Rain,250,2012-10-18 20:16:00
4:53 PM,54.0,39.9,59,29.60,10.0,West,12.7,21.9,0.00,Rain,Light Rain,270,2012-10-18 20:53:00
5:53 PM,55.9,34.0,44,29.60,10.0,SSW,20.7,26.5,0.00,,Partly Cloudy,210,2012-10-18 21:53:00
6:53 PM,54.0,35.1,49,29.62,10.0,SSW,15.0,-,N/A,,Scattered Clouds,210,2012-10-18 22:53:00
7:53 PM,54.0,35.1,49,29.64,10.0,SSW,13.8,-,N/A,,Overcast,200,2012-10-18 23:53:00
8:53 PM,52.0,36.0,54,29.65,10.0,SSW,15.0,23.0,N/A,,Partly Cloudy,210,2012-10-19 00:53:00
9:53 PM,50.0,36.0,59,29.67,10.0,SSW,9.2,-,N/A,,Clear,210,2012-10-19 01:53:00
10:53 PM,48.9,37.9,66,29.68,10.0,South,5.8,-,N/A,,Partly Cloudy,190,2012-10-19 02:53:00
11:53 PM,48.9,37.9,66,29.68,10.0,South,3.5,-,N/A,,Overcast,190,2012-10-19 03:53:00